STARLINK-5700, 55607

Orbit data source: Space-Track

STARLINK-5700, 55607 is a payload satellite owned by SpaceX/Seattle (US) in LEO that was launched on Sun, 12 Feb 2023 UTC via an FALCON 9 launch vehicle from the Air Force Eastern Test Range (AFETR). Payload-class satellites include a variety of spacecraft equipped with specific instruments for various scientific and technological missions. These include communications satellites like Starlink; space stations such as the ISS; scientific satellites like the Hubble; Earth observation satellites from companies like Planet Labs, Umbra, and HawkEye 360; GPS; miniature CubeSats for education and research; and military/defense satellites.

Loading next visibility...
Identifier
55607, 2023-020AQ
Orbit
LEO
Country
Flag of USUS
Related business
Manufacturer
SpaceX/Seattle
Mission
Operational Commercial Communications
Bus & Motor
STARLINK, Unknown motor
Mass
305 kg wet, ~290 kg dry
Launch date (UTC)
2023-02-12 (3 years ago)
Launch vehicle
FALCON 9
Launch site
Air Force Eastern Test Range (AFETR)
Object type
Payload
Rocket body
Debris
Shape & HBR
Box + 1 Pan, 10.1 m
Radar Cross Section
13.562 m², Large (>1 m²)

Expand to show TLE details & history
Last TLE update: 9 hours ago

TLE from 9 hours ago
0 STARLINK-5700
1 55607U 23020AQ  26061.95180510  .00000624  00000-0  61296-4 0  9994
2 55607  43.0060  28.4580 0001384 265.1749  94.8936 15.02532972168050
Epoch: 2026-03-02T22:50Z
TLE epoch observation values (Epoch: 2026-03-02T22:50:35.960Z)
Latitude
0.00002°
Longitude
-114.92966°
Altitude
558.949 km
Speed
7.584 km/s
True Right ascension
01h 53m 49s
True Declination
0° 00' 00"
Sunlit
Object was in daylight at epoch
Visualization orbit readout
Latitude
Unknown
Longitude
Unknown
Altitude
Unknown
Speed
Unknown
Apparent Right ascension
Unknown
Apparent Declination
Unknown
Sunlit
N/A
Visualization observer readout
Local Sidereal Time
11:20:56
Azimuth
Unknown
Elevation
Unknown
Doppler factor
Unknown
Orbital elements
Apogee altitude
561.972 km
Perigee altitude
560.051 km
Semi-major axis
6,939.149 km
Eccentricity
0.00014
Inclination
43.006°
RAAN
28.458°
Arg. of periapsis
265.1749°
True anomaly
94.9094°
Mean anomaly
94.8936°
Eccentric anomaly
94.9015°
Mean motion
3.75477 °/min
Orbital period
95.88 mins
BSTAR
0.000061296
Loading maneuver chart data...
Computing Atmospheric mass density...
Loading historical data...
Loading historical data...
Loading historical data...
Loading historical data...
Loading historical data...
Loading historical data...
Loading historical data...

Documentation

Showing up to 5 results
|